Regional Weather Roundup
Issued by NWS

Home | Current Version | Previous Version | Text Only | Print | Product List | Glossary Off
Versions: 1 2 3 4 5 6 7 8 9 10 11 12 13 14 15 16 17 18 19 20 21 22 23 24 25 26 27 28 29 30 31 32 33 34 35 36 37 38 39 40 41 42 43 44 45 46 47 48 49 50

000
ASUS43 KTOP 200559
RWRKS

WEATHER ROUNDUP FOR KANSAS
NATIONAL WEATHER SERVICE GOODLAND KS
100 AM CDT SUN APR 20 2014

NOTE:  "FAIR" INDICATES FEW OR NO CLOUDS BELOW 12,000 FEET WITH NO
SIGNIFICANT WEATHER AND/OR OBSTRUCTIONS TO VISIBILITY.

KSZ001>006-013>018-027>032-041>047-200700-
NORTHWEST KANSAS

CITY           SKY/WX    TMP DP  RH WIND       PRES   REMARKS
GOODLAND       MOCLDY    50  47  89 NE5       30.01S
6HR MIN TEMP:  50; 6HR MAX TEMP:  67; 6HR PCP: TRACE;

HAYS           FAIR      63  46  55 S12       29.98S
HILL CITY      FAIR      60  51  72 N10       29.97R
6HR MIN TEMP:  60; 6HR MAX TEMP:  80; 6HR PCP: TRACE;

RUSSELL        FAIR      61  49  64 S12       29.97R
6HR MIN TEMP:  60; 6HR MAX TEMP:  77;

$$

KSZ061>065-074>080-084>089-200700-
SOUTHWEST KANSAS

CITY           SKY/WX    TMP DP  RH WIND       PRES   REMARKS
DODGE CITY     FAIR      60  48  64 S10       30.03R
6HR MIN TEMP:  58; 6HR MAX TEMP:  78;

ELKHART          N/A     57  45  64 S9          N/A
GARDEN CITY    FAIR      56  48  74 S9        30.00S
6HR MIN TEMP:  55; 6HR MAX TEMP:  78;

GREAT BEND     FAIR      64  48  55 S20       29.99S
LIBERAL        MOCLDY    59  48  67 S9        30.06S
$$

KSZ066>073-081>083-090>101-200700-
SOUTHEAST KANSAS

CITY           SKY/WX    TMP DP  RH WIND       PRES   REMARKS
CHANUTE        FAIR      58  46  64 S8        30.11R
6HR MIN TEMP:  56; 6HR MAX TEMP:  72;

COFFEYVILLE    FAIR      59  47  64 S7        30.11R
6HR MIN TEMP:  58; 6HR MAX TEMP:  73;

HUTCHINSON     FAIR      62  48  60 S12       30.03R
6HR MIN TEMP:  62; 6HR MAX TEMP:  77;

NEWTON         FAIR      61  45  55 S14       30.08R
PARSONS        FAIR      61  45  55 SE5       30.12R
6HR MIN TEMP:  61; 6HR MAX TEMP:  75;

WICHITA INTL   MOCLDY    62  48  60 S13       30.05R
6HR MIN TEMP:  61; 6HR MAX TEMP:  76;

WICHITA JABRA  FAIR      62  48  60 S14       30.05S
6HR MIN TEMP:  61; 6HR MAX TEMP:  76;

WINFIELD       FAIR      62  49  62 SE8       30.09R
6HR MIN TEMP:  61; 6HR MAX TEMP:  76;

$$

KSZ007>012-019>026-033>040-048>060-102>105-200700-
NORTHEAST KANSAS

CITY           SKY/WX    TMP DP  RH WIND       PRES   REMARKS
CONCORDIA      FAIR      65  49  56 S22       29.98R
6HR MIN TEMP:  65; 6HR MAX TEMP:  77;

EMPORIA        FAIR      58  46  64 S13       30.06S
6HR MIN TEMP:  58; 6HR MAX TEMP:  73;

LAWRENCE       FAIR      56  45  66 E7        30.08F
6HR MIN TEMP:  54; 6HR MAX TEMP:  74;

MANHATTAN      FAIR      62  46  55 S7        30.03R
6HR MIN TEMP:  62; 6HR MAX TEMP:  77;

OLATHE IND     FAIR      59  44  57 SE7       30.10F
6HR MIN TEMP:  55; 6HR MAX TEMP:  71;

OLATHE EXE     FAIR      58  44  60 S5        30.09S
6HR MIN TEMP:  57; 6HR MAX TEMP:  71;

SALINA         FAIR      66  48  52 S16       30.01S
6HR MIN TEMP:  66; 6HR MAX TEMP:  79;

TOPEKA BILLARD FAIR      61  45  55 SE8       30.07F
6HR MIN TEMP:  61; 6HR MAX TEMP:  75;

TOPEKA FORBES  FAIR      60  45  57 S9        30.07S
6HR MIN TEMP:  60; 6HR MAX TEMP:  74;

$$



USA.gov is the U.S. government's official web portal to all federal, state and local government web resources and services.